Notices

What's New in latest Release from April 7th, 2021:

- Updated Glossary, including Speed of Maximum Gust, and Total Hourly Precipitation

- Updated national and regional climate services offices contacts and prices information

- Addition of station inventory lists for 1981-2010, 1971-2000, and 1961-1990 Normals.

If you haven't already, please take our survey and provide feedback about our website: https://eccc.sondage-survey.ca/f/LanguageSelection.aspx?s=442ca660-fcf1-47c0-95a9-59707d6fd709

Hourly Data Report for January 17, 2021

CARBERRY CS
MANITOBA
Current Station Operator: ECCC - MSC

49°54'20.900" N
99°21'26.800" W
383.50 m
5010547
71170
WZE

Download Data

Hourly Data (January 2021)
Hourly Data Report for January 17, 2021
TIME
LST
Temp Definition
°C
Dew Point Definition
°C
Rel Hum Definition
%
Precip. Amount Definition
mm

Wind Dir Definition
10's deg

Wind Spd Definition
km/h
Visibility Definition
km
Stn Press Definition
kPa
Hmdx Definition


Wind Chill Definition


Weather Definition


00:00 -2.1 -4.6 83 0.0 30 26   96.33   -9 LegendNANA
01:00 -2.2 -3.5 91 0.0 31 20   96.36   -8 LegendNANA
02:00 -2.4 -2.7 98 0.2 32 12   96.39   -7 LegendNANA
03:00 -3.2 -5.0 88 0.0 1 19   96.46   -9 LegendNANA
04:00 -4.3 -5.9 89 0.0 2 18   96.52   -10 LegendNANA
05:00 -6.4 -8.6 84 0.0 1 21   96.61   -13 LegendNANA
06:00 -7.0 -9.9 80 0.0 36 18   96.66   -14 LegendNANA
07:00 -7.9 -10.4 82 0.0 1 20   96.67   -15 LegendNANA
08:00 -8.8 -11.7 79 0.0 1 19   96.71   -16 LegendNANA
09:00 -9.5 -12.1 82 0.0 1 16   96.74   -16 LegendNANA
10:00 -9.9 -12.4 82 0.0 2 13   96.73   -16 LegendNANA
11:00 -10.4 -13.1 80 0.0 2 12   96.74   -16 LegendNANA
12:00 -10.5 -13.3 80 0.0 2 9   96.72   -15 LegendNANA
13:00 -10.2 -13.4 78 0.0 4 9   96.65   -15 LegendNANA
14:00 -9.9 -12.9 79 0.0 4 10   96.61   -15 LegendNANA
15:00 -10.0 -13.0 79 0.0 3 9   96.61   -15 LegendNANA
16:00 -10.0 -13.0 79 0.0 4 8   96.57   -14 LegendNANA
17:00 -11.0 -13.5 82 0.0 7 9   96.58   -16 LegendNANA
18:00 -11.5 -13.8 83 0.0 8 9   96.60   -17 LegendNANA
19:00 -11.8 -13.9 85 0.0 7 8   96.59   -17 LegendNANA
20:00 -12.0 -13.9 85 0.0 8 9   96.57   -17 LegendNANA
21:00 -12.1 -14.1 85 0.0 6 8   96.57   -17 LegendNANA
22:00 -12.8 -15.4 81 0.3 3 16   96.60   -20 LegendNANA
23:00 -13.0 -15.1 84 0.2 5 9   96.63   -18 LegendNANA

Notes on Data Quality.

Legend

  • E = Estimated
  • M = Missing
  • NA = Not Available*
  • [empty] = Indicates an unobserved value
Date modified: